Regional Weather Roundup
Issued by NWS

Home | Current Version | Previous Version | Graphics & Text | Print | Product List | Glossary On
Versions: 1 2 3 4 5 6 7 8 9 10 11 12 13 14 15 16 17 18 19 20 21 22 23 24 25 26 27 28 29 30 31 32 33 34 35 36 37 38 39 40 41 42 43 44 45 46 47 48 49 50
000
ASUS43 KMKX 041321
RWRWI

WISCONSIN REGIONAL WEATHER ROUNDUP
NATIONAL WEATHER SERVICE MILWAUKEE/SULLIVAN WI
800 AM CDT MON MAY 04 2015

NOTE: "FAIR" INDICATES FEW OR NO CLOUDS BELOW 12,000 FEET WITH NO
SIGNIFICANT WEATHER AND/OR OBSTRUCTIONS TO VISIBILITY.

WIZ001-002-006>008-014>016-023>028-041400-
NORTHWEST WISCONSIN

CITY           SKY/WX    TMP DP  RH WIND       PRES   REMARKS
SUPERIOR ARPT  SUNNY     50  39  66 W3        30.16R
ASHLAND        SUNNY     50  38  63 SW3       30.14R
HAYWARD        SUNNY     50  39  66 CALM      30.14R
SIREN          SUNNY     51  36  57 N5        30.16R
CUMBERLAND     SUNNY     50  36  57 N9        30.14R
RICE LAKE      SUNNY     52  37  55 N8        30.15R
CHETEK         SUNNY     52  40  64 N7        30.13R
LADYSMITH      SUNNY     51  40  64 N9        30.13R
EAU CLAIRE     MOSUNNY   55  38  52 N9        30.10R
MENOMONIE      MOSUNNY   54  39  57 N10       30.11R
NEW RICHMOND   SUNNY     52  39  59 N8        30.14R
OSCEOLA        SUNNY     50  38  63 N6        30.17S
$$

WIZ003>005-009-010-017-018-041400-
NORTH CENTRAL WISCONSIN

CITY           SKY/WX    TMP DP  RH WIND       PRES   REMARKS
MANITOWISH WTR SUNNY     50  37  62 N7        30.09R
ARBOR VITAE    SUNNY     52  39  62 N9        30.09R
WOODRUFF       SUNNY     52  39  62 N9        30.09R
RHINELANDER    SUNNY     51  39  63 N7        30.08R
EAGLE RIVER    MOSUNNY   51  37  58 N12       30.07R
LAND O LAKES   SUNNY     51  36  56 NW7       30.09R
PHILLIPS       SUNNY     49  39  69 N5        30.09R
TOMAHAWK       SUNNY     49  41  75 N6        30.09R
MEDFORD        MOSUNNY   51  41  69 N7        30.08R
MERRILL        MOSUNNY   52  42  69 N7        30.07R
$$

WIZ029-030-035-036-043>047-041400-
CENTRAL WISCONSIN

CITY           SKY/WX    TMP DP  RH WIND       PRES   REMARKS
WAUSAU         PTSUNNY   54  43  66 N8        30.05R
MOSINEE        SUNNY     54  46  76 N8        30.07R
MARSHFIELD     PTSUNNY   54  44  69 N8        30.07R
STEVENS POINT  PTSUNNY   53  49  87 N6        30.06R
WAUPACA        CLOUDY    59  55  85 NW6       30.03R
WAUTOMA        CLOUDY    60  57  89 N7        30.04R
WISC RAPIDS    PTSUNNY   53  48  83 N12       30.07R
CAMP DOUGLAS   PTSUNNY   57  57 100 NW9       30.05R
$$

WIZ011>013-019>022-031-037>040-048>050-041400-
NORTHEAST WISCONSIN

CITY           SKY/WX    TMP DP  RH WIND       PRES   REMARKS
ANTIGO         MOSUNNY   53  44  73 N9        30.05R
SHAWANO        PTSUNNY   60  52  74 N5        30.04R
OCONTO         MOSUNNY   60  48  66 N8        30.01R
STURGEON BAY   PTSUNNY   57  45  62 N14       30.04R
GREEN BAY      PTSUNNY   61  55  81 N9        30.01R
MANITOWOC      PTSUNNY   61  59  93 NW6       30.01R
APPLETON       PTSUNNY   57  57 100 NW6       30.02R
CLINTONVILLE   PTSUNNY   57  52  82 N7        30.03R
OSHKOSH        CLOUDY    60  56  86 NW8       30.01R
$$

WIZ032>034-041-042-053>061-041400-
SOUTHWEST WISCONSIN

CITY           SKY/WX    TMP DP  RH WIND       PRES   REMARKS
LA CROSSE      PTSUNNY   58  50  75 N9        30.06R
SPARTA         PTSUNNY   56  49  77 N8        30.07R
VIROQUA        CLOUDY    58  58 100 N10       30.05S
BOSCOBEL       CLOUDY    62  58  86 CALM      30.04R
PRAIRIE DU CHI CLOUDY    58  57  96 CALM      30.04R
PLATTEVILLE    CLOUDY    58  57  97 N8        30.05R
$$

WIZ056-057-062-063-064-067-068-041400-
SOUTH CENTRAL WISCONSIN

CITY           SKY/WX    TMP DP  RH WIND       PRES   REMARKS
REEDSBURG      CLOUDY    58  57  95 NW3       30.03S
BARABOO/DELLS  NOT AVBL
LONE ROCK      CLOUDY    61  57  87 N8        30.02R
MINERAL POINT  CLOUDY    59  57  94 NW8       30.04R
MADISON        CLOUDY    60  57  89 N6        30.02R
MIDDLETON      CLOUDY    61  59  94 NW6       30.02S
WATERTOWN      CLOUDY    58  58 100 W3        30.01S
MONROE         CLOUDY    57  55  94 N3        30.04R
JANESVILLE     PTSUNNY   59  57  94 N6        30.02R
$$

WIZ051-052-058>065-066-070>072-041400-
SOUTHEAST WISCONSIN

CITY           SKY/WX    TMP DP  RH WIND       PRES   REMARKS
MILWAUKEE      CLOUDY    62  55  77 NW8       30.00R
WAUKESHA       CLOUDY    57  55  94 NW7       30.02R
MILWAUKEE/TIMM SUNNY     61  54  77 NW8       30.01R
RACINE         CLOUDY    62  55  77 NW6       30.03R
BURLINGTON     CLOUDY    57  56  95 CALM      30.02R
KENOSHA        CLOUDY    61  57  87 NW6       30.02R
FOND DU LAC    CLOUDY    60  56  86 NW7       30.02R
SHEBOYGAN      CLOUDY    60  57  89 NW8       30.01R
WEST BEND      CLOUDY    59  54  82 NW7       30.02R
JUNEAU         CLOUDY    58  56  93 CALM      30.04R
$$

LSZ147-162-041400-
LAKE SUPERIOR

STATION/POSITION TIME  TEMP    WIND        PRES    WAVE
                       AIR SEA DIR/SP/G            HT/PER
                 (UTC) (F)     (DEG/KT/KT) (MB)    (FT/S)
W MID LAKE BUOY  1250   39 35  250/ 10/ 10 1019.6R   1
DEVILS ISLAND    1300   44     250/ 10/ 12 1020.5R
PORT WING        1200   39     160/  4/  6 1019.3
SAXON HARBOR     1200   41        CALM     1018.6
$$

LMZ867-665-643>646-041400-
LAKE MICHIGAN

STATION/POSITION TIME  TEMP    WIND        PRES    WAVE
                       AIR SEA DIR/SP/G            HT/PER
                 (UTC) (F)     (DEG/KT/KT) (MB)    (FT/S)
CHAMBERS ISLAND  1200   58     290/  8/ 12 1015.6R
NORTHPORT PIER   1200   53     300/ 12/ 17 1014.9R
SISTER BAY       1202   52     360/ 11/ 12   N/A
KEWAUNEE LAKESHO 1200   59     310/  4/  6 1014.1R
SHEBOYGAN LAKESH 1300   59     330/ 10/ 11 1016.3R
PORT WASHINGTON  1200   61     280/  7/ 11 1015.6R
ATWATER BUOY     1300   55     300/  8/ 12 1016.9R
MILWAUKEE LAKESH 1300   62     310/ 10/ 15   N/A
KENOSHA   LAKESH 1300   62     290/  7/  9 1016.6R
$$

TC  - TEMPERATURE IN CELSIUS
VSB - VISIBILITY IN STATUTE MILES
WCI - WIND CHILL INDEX
HX  - HEAT INDEX




USA.gov is the U.S. government's official web portal to all federal, state and local government web resources and services.